OBJECT A

Last updated on Feb. 16, 2021, 12:02 a.m. UTC

1 47618U 21011A   21046.68194115  .00194939  00000-0  10900-2 0  9996
2 47618  51.6432 224.0280 0037734 356.7442 308.7421 15.77213058    84

Satellite is not in orbit.